Lumberton, NC

10:00 PM EDT on July 23, 2017 (GMT -0400)
Lumberton Municipal

Weather History for KLBT - September, 2011

Change the Weather History Date:

Saturday, September 24, 2011

  Actual Average Record
Temperature  
Mean Temperature 75 °F 71 °F  
Max Temperature 81 °F 82 °F 93 °F (2010)
Min Temperature 69 °F 60 °F 50 °F (1999)
Degree Days  
Heating Degree Days 0 1  
Month to date heating degree days 7 2  
Since 1 July heating degree days 7 2  
Cooling Degree Days 10 6  
Month to date cooling degree days 234 215  
Year to date cooling degree days 2189 1787  
Growing Degree Days 24 (Base 50)    
Moisture  
Dew Point 70 °F    
Average Humidity 87    
Maximum Humidity 100    
Minimum Humidity 74    
Precipitation  
Precipitation 0.16 in 0.16 in 1.78 in (2001)
Month to date precipitation 2.17 3.86  
Year to date precipitation 33.74 34.25  
Sea Level Pressure  
Sea Level Pressure 29.97 in    
Wind  
Wind Speed 4 mph (East)    
Max Wind Speed 12 mph    
Max Gust Speed 15 mph    
Visibility 8 miles    
Events Fog , Rain    
T = Trace of Precipitation, MM = Missing Value Source: NWS Daily Summary

Daily Weather History Graph

Daily Weather History Graph

Search for Another Location

Airport or City:

Trip Planner

Search our weather history database for the weather conditions in past years. The results will help you decide how hot, cold, wet, or windy it might be!

Date:

Astronomy

Sep. 24, 2011 Rise Set
Actual Time 7:05 AM EDT 7:10 PM EDT
Civil Twilight 6:40 AM EDT 7:35 PM EDT
Nautical Twilight 6:11 AM EDT 8:04 PM EDT
Astronomical Twilight 5:41 AM EDT 8:34 PM EDT
Moon 3:46 AM EDT 5:10 PM EDT
Length of Visible Light 12h 55m
Length of Day
12h 05m
Waning Crescent, 11% of the Moon is Illuminated
Sep 24
Waning Crescent
Sep 27
New
Oct 3
First Quarter
Oct 11
Full
Oct 19
Last Quarter

Hourly Weather History & Observations

Time (EDT) Temp. Heat Index Dew Point Humidity Pressure Visibility Wind Dir Wind Speed Gust Speed Precip Events Conditions
1:54 AM 69.1 °F - 69.1 °F 100% 29.96 in 0.5 mi Calm Calm - N/A Fog Fog
2:45 AM 69.8 °F - 69.8 °F 100% 29.96 in 1.2 mi Calm Calm - N/A   Overcast
3:00 AM 69.8 °F - 69.8 °F 100% 29.95 in 2.0 mi Calm Calm - N/A   Overcast
3:09 AM 69.8 °F - 69.8 °F 100% 29.95 in 7.0 mi Calm Calm - N/A   Overcast
3:36 AM 69.8 °F - 69.8 °F 100% 29.94 in 10.0 mi Calm Calm - N/A   Scattered Clouds
3:54 AM 69.1 °F - 69.1 °F 100% 29.94 in 7.0 mi Calm Calm - N/A   Clear
4:23 AM 69.8 °F - 69.8 °F 100% 29.94 in 10.0 mi Calm Calm - N/A   Scattered Clouds
4:54 AM 69.1 °F - 69.1 °F 100% 29.94 in 10.0 mi Calm Calm - N/A   Partly Cloudy
5:54 AM 69.1 °F - 69.1 °F 100% 29.95 in 10.0 mi Calm Calm - N/A   Partly Cloudy
6:39 AM 69.8 °F - 69.8 °F 100% 29.95 in 10.0 mi East 3.5 mph - N/A   Mostly Cloudy
6:49 AM 69.8 °F - 69.8 °F 100% 29.94 in 7.0 mi East 3.5 mph - N/A   Mostly Cloudy
6:54 AM 70.0 °F - 69.1 °F 97% 29.94 in 9.0 mi East 4.6 mph - N/A   Overcast
7:13 AM 69.8 °F - 69.8 °F 100% 29.95 in 10.0 mi Calm Calm - N/A   Overcast
7:54 AM 70.0 °F - 70.0 °F 100% 29.97 in 8.0 mi Calm Calm - 0.01 in   Overcast
8:19 AM 71.6 °F - 69.8 °F 94% 29.97 in 10.0 mi Calm Calm - N/A   Overcast
8:54 AM 71.1 °F - 70.0 °F 96% 29.97 in 2.5 mi ESE 5.8 mph - 0.03 in Rain Rain
9:12 AM 71.6 °F - 69.8 °F 94% 29.98 in 4.0 mi Calm Calm - 0.04 in Rain Light Rain
10:54 AM 75.9 °F - 72.0 °F 87% 29.98 in 10.0 mi NNE 5.8 mph - N/A   Partly Cloudy
11:45 AM 80.6 °F 84.6 °F 71.6 °F 74% 29.99 in 10.0 mi NNE 5.8 mph - N/A   Overcast
12:29 PM 78.8 °F - 69.8 °F 74% 30.00 in 10.0 mi ESE 5.8 mph - N/A   Overcast
12:54 PM 75.9 °F - 72.0 °F 87% 29.99 in 5.0 mi ESE 4.6 mph - 0.02 in Rain Light Rain
1:54 PM 77.0 °F - 72.0 °F 84% 29.97 in 10.0 mi East 5.8 mph - 0.02 in   Scattered Clouds
2:54 PM 80.1 °F 83.8 °F 72.0 °F 76% 29.95 in 10.0 mi NE 8.1 mph - N/A   Partly Cloudy
3:54 PM 79.0 °F - 71.1 °F 77% 29.95 in 10.0 mi ENE 5.8 mph - N/A   Clear
4:54 PM 79.0 °F - 71.1 °F 77% 29.94 in 10.0 mi ENE 9.2 mph - N/A   Mostly Cloudy
5:54 PM 79.0 °F - 70.0 °F 74% 29.95 in 10.0 mi East 9.2 mph - N/A   Scattered Clouds
6:54 PM 75.9 °F - 71.1 °F 85% 29.96 in 10.0 mi East 3.5 mph - N/A   Clear
7:45 PM 75.2 °F - 71.6 °F 89% 29.98 in 10.0 mi Calm Calm - N/A   Mostly Cloudy
7:54 PM 75.0 °F - 71.1 °F 87% 29.98 in 10.0 mi Calm Calm - N/A   Overcast
8:28 PM 73.4 °F - 71.6 °F 94% 29.99 in 10.0 mi ESE 9.2 mph - N/A   Scattered Clouds
8:46 PM 73.4 °F - 71.6 °F 94% 30.00 in 10.0 mi ESE 6.9 mph - N/A   Mostly Cloudy
8:54 PM 73.9 °F - 71.1 °F 91% 30.01 in 10.0 mi ESE 5.8 mph - N/A   Mostly Cloudy
9:18 PM 73.4 °F - 71.6 °F 94% 30.01 in 10.0 mi ESE 6.9 mph - N/A   Overcast